Time,TemperatureF,DewpointF,PressureIn,WindDirection,WindDirectionDegrees,WindSpeedMPH,WindSpeedGustMPH,Humidity,HourlyPrecipIn,Conditions,Clouds,dailyrainin,SoftwareType,DateUTC
2013-03-04 00:00:00,30.9,18.6,30.00,WNW,296,2.0,4.0,60,0.00,,,0.00,Wunderground v.1.15,2013-03-04 05:00:00,
2013-03-04 00:05:00,30.9,18.6,30.00,NW,311,3.0,6.0,60,0.00,,,0.00,Wunderground v.1.15,2013-03-04 05:05:00,
2013-03-04 00:10:00,30.8,18.1,30.00,NW,309,2.0,2.0,59,0.00,,,0.00,Wunderground v.1.15,2013-03-04 05:10:00,
2013-03-04 00:20:00,30.7,18.4,30.01,WNW,296,1.0,1.0,60,0.00,,,0.00,Wunderground v.1.15,2013-03-04 05:20:00,
2013-03-04 00:25:00,30.6,18.7,30.01,WNW,296,1.0,5.0,61,0.00,,,0.00,Wunderground v.1.15,2013-03-04 05:25:00,
2013-03-04 00:35:00,30.7,18.8,30.01,NW,319,3.0,5.0,61,0.00,,,0.00,Wunderground v.1.15,2013-03-04 05:35:00,
2013-03-04 00:45:00,30.6,18.3,30.01,NW,319,3.0,4.0,60,0.00,,,0.00,Wunderground v.1.15,2013-03-04 05:45:00,
2013-03-04 00:55:00,30.5,18.3,30.01,NW,312,2.0,8.0,60,0.00,,,0.00,Wunderground v.1.15,2013-03-04 05:55:00,
2013-03-04 01:05:00,30.3,18.5,30.01,WNW,296,2.0,2.0,61,0.00,,,0.00,Wunderground v.1.15,2013-03-04 06:05:00,
2013-03-04 01:15:00,30.1,18.3,30.01,NW,317,1.0,2.0,61,0.00,,,0.00,Wunderground v.1.15,2013-03-04 06:15:00,
2013-03-04 01:25:00,30.1,18.3,30.01,NW,311,2.0,6.0,61,0.00,,,0.00,Wunderground v.1.15,2013-03-04 06:25:00,
2013-03-04 01:35:00,30.2,18.7,30.01,WNW,300,3.0,5.0,62,0.00,,,0.00,Wunderground v.1.15,2013-03-04 06:35:00,
2013-03-04 01:45:00,29.9,18.1,30.01,WNW,302,1.0,5.0,61,0.00,,,0.00,Wunderground v.1.15,2013-03-04 06:45:00,
2013-03-04 01:55:00,29.6,18.2,30.02,WNW,302,1.0,1.0,62,0.00,,,0.00,Wunderground v.1.15,2013-03-04 06:55:00,
2013-03-04 02:00:00,29.6,18.2,30.02,NW,304,1.0,1.0,62,0.00,,,0.00,Wunderground v.1.15,2013-03-04 07:00:00,
2013-03-04 02:05:00,29.4,18.3,30.02,NW,304,1.0,1.0,63,0.00,,,0.00,Wunderground v.1.15,2013-03-04 07:05:00,
2013-03-04 02:15:00,29.1,18.4,30.02,NW,304,1.0,1.0,64,0.00,,,0.00,Wunderground v.1.15,2013-03-04 07:15:00,
2013-03-04 02:20:00,28.9,18.6,30.02,NW,304,1.0,1.0,65,0.00,,,0.00,Wunderground v.1.15,2013-03-04 07:20:00,
2013-03-04 02:30:00,28.6,18.7,30.02,NW,304,1.0,1.0,66,0.00,,,0.00,Wunderground v.1.15,2013-03-04 07:30:00,
2013-03-04 02:40:00,28.4,18.5,30.02,NW,304,0.0,0.0,66,0.00,,,0.00,Wunderground v.1.15,2013-03-04 07:40:00,
2013-03-04 02:50:00,28.2,19.0,30.02,NW,304,0.0,0.0,68,0.00,,,0.00,Wunderground v.1.15,2013-03-04 07:50:00,
2013-03-04 03:00:00,27.9,18.7,30.02,NW,304,1.0,1.0,68,0.00,,,0.00,Wunderground v.1.15,2013-03-04 08:00:00,
2013-03-04 03:05:00,27.9,18.7,30.02,NW,304,1.0,1.0,68,0.00,,,0.00,Wunderground v.1.15,2013-03-04 08:05:00,
2013-03-04 03:15:00,28.3,18.7,30.02,NW,307,3.0,4.0,67,0.00,,,0.00,Wunderground v.1.15,2013-03-04 08:15:00,
2013-03-04 03:20:00,28.4,18.5,30.02,NW,307,3.0,3.0,66,0.00,,,0.00,Wunderground v.1.15,2013-03-04 08:20:00,
2013-03-04 03:30:00,28.1,18.9,30.02,NW,307,2.0,2.0,68,0.00,,,0.00,Wunderground v.1.15,2013-03-04 08:30:00,
2013-03-04 03:35:00,28.0,18.5,30.03,NW,307,1.0,2.0,67,0.00,,,0.00,Wunderground v.1.15,2013-03-04 08:35:00,
2013-03-04 03:45:00,27.8,18.6,30.03,NW,307,1.0,1.0,68,0.00,,,0.00,Wunderground v.1.15,2013-03-04 08:45:00,
2013-03-04 03:55:00,27.5,18.7,30.03,NW,307,1.0,4.0,69,0.00,,,0.00,Wunderground v.1.15,2013-03-04 08:55:00,
2013-03-04 04:05:00,27.6,18.4,30.04,NW,306,2.0,2.0,68,0.00,,,0.00,Wunderground v.1.15,2013-03-04 09:05:00,
2013-03-04 04:15:00,27.7,18.2,30.04,NW,307,2.0,4.0,67,0.00,,,0.00,Wunderground v.1.15,2013-03-04 09:15:00,
2013-03-04 04:25:00,27.9,17.6,30.04,WNW,302,2.0,5.0,65,0.00,,,0.00,Wunderground v.1.15,2013-03-04 09:25:00,
2013-03-04 04:35:00,27.9,17.6,30.05,WNW,300,3.0,3.0,65,0.00,,,0.00,Wunderground v.1.15,2013-03-04 09:35:00,
2013-03-04 04:45:00,27.8,17.6,30.05,WNW,302,2.0,2.0,65,0.00,,,0.00,Wunderground v.1.15,2013-03-04 09:45:00,
2013-03-04 04:55:00,27.6,17.4,30.06,WNW,302,1.0,2.0,65,0.00,,,0.00,Wunderground v.1.15,2013-03-04 09:55:00,
2013-03-04 05:05:00,27.4,17.2,30.06,WNW,302,1.0,1.0,65,0.00,,,0.00,Wunderground v.1.15,2013-03-04 10:05:00,
2013-03-04 05:15:00,27.4,17.5,30.06,WNW,302,2.0,2.0,66,0.00,,,0.00,Wunderground v.1.15,2013-03-04 10:15:00,
2013-03-04 05:25:00,27.4,17.2,30.06,WNW,301,1.0,1.0,65,0.00,,,0.00,Wunderground v.1.15,2013-03-04 10:25:00,
2013-03-04 05:30:00,27.2,17.3,30.06,WNW,301,1.0,4.0,66,0.00,,,0.00,Wunderground v.1.15,2013-03-04 10:30:00,
2013-03-04 05:40:00,27.1,17.2,30.07,WNW,302,1.0,1.0,66,0.00,,,0.00,Wunderground v.1.15,2013-03-04 10:40:00,
2013-03-04 05:50:00,27.0,17.1,30.07,WNW,303,1.0,1.0,66,0.00,,,0.00,Wunderground v.1.15,2013-03-04 10:50:00,
2013-03-04 06:00:00,26.9,17.0,30.08,NW,304,2.0,4.0,66,0.00,,,0.00,Wunderground v.1.15,2013-03-04 11:00:00,
2013-03-04 06:05:00,27.1,16.9,30.08,WNW,303,2.0,4.0,65,0.00,,,0.00,Wunderground v.1.15,2013-03-04 11:05:00,
2013-03-04 06:15:00,27.2,16.6,30.08,NW,304,2.0,2.0,64,0.00,,,0.00,Wunderground v.1.15,2013-03-04 11:15:00,
2013-03-04 06:25:00,26.9,17.0,30.09,WNW,302,1.0,2.0,66,0.00,,,0.00,Wunderground v.1.15,2013-03-04 11:25:00,
2013-03-04 06:35:00,26.6,16.8,30.10,WNW,302,1.0,1.0,66,0.00,,,0.00,Wunderground v.1.15,2013-03-04 11:35:00,
2013-03-04 06:45:00,26.7,16.9,30.10,WNW,294,1.0,4.0,66,0.00,,,0.00,Wunderground v.1.15,2013-03-04 11:45:00,
2013-03-04 06:55:00,27.0,16.8,30.10,WNW,291,3.0,6.0,65,0.00,,,0.00,Wunderground v.1.15,2013-03-04 11:55:00,
2013-03-04 07:05:00,27.5,16.9,30.10,WNW,303,4.0,4.0,64,0.00,,,0.00,Wunderground v.1.15,2013-03-04 12:05:00,
2013-03-04 07:15:00,28.1,17.1,30.11,West,268,5.0,7.0,63,0.00,,,0.00,Wunderground v.1.15,2013-03-04 12:15:00,
2013-03-04 07:25:00,28.4,17.0,30.11,WNW,298,5.0,8.0,62,0.00,,,0.00,Wunderground v.1.15,2013-03-04 12:25:00,
2013-03-04 07:35:00,29.1,17.7,30.12,NW,312,5.0,6.0,62,0.00,,,0.00,Wunderground v.1.15,2013-03-04 12:35:00,
2013-03-04 07:45:00,29.7,17.1,30.12,WNW,302,5.0,8.0,59,0.00,,,0.00,Wunderground v.1.15,2013-03-04 12:45:00,
2013-03-04 07:55:00,30.2,17.6,30.13,NW,313,4.0,7.0,59,0.00,,,0.00,Wunderground v.1.15,2013-03-04 12:55:00,
2013-03-04 08:05:00,30.8,16.9,30.13,WNW,302,6.0,6.0,56,0.00,,,0.00,Wunderground v.1.15,2013-03-04 13:05:00,
2013-03-04 08:15:00,31.5,18.0,30.13,NW,317,5.0,6.0,57,0.00,,,0.00,Wunderground v.1.15,2013-03-04 13:15:00,
2013-03-04 08:20:00,31.9,18.0,30.13,WNW,297,5.0,8.0,56,0.00,,,0.00,Wunderground v.1.15,2013-03-04 13:20:00,
2013-03-04 08:30:00,32.5,17.7,30.14,NW,311,6.0,7.0,54,0.00,,,0.00,Wunderground v.1.15,2013-03-04 13:30:00,
2013-03-04 08:40:00,33.0,17.7,30.13,NW,317,7.0,9.0,53,0.00,,,0.00,Wunderground v.1.15,2013-03-04 13:40:00,
2013-03-04 08:50:00,33.2,17.5,30.14,NW,309,9.0,9.0,52,0.00,,,0.00,Wunderground v.1.15,2013-03-04 13:50:00,
2013-03-04 09:00:00,33.8,18.0,30.14,North,5,8.0,8.0,52,0.00,,,0.00,Wunderground v.1.15,2013-03-04 14:00:00,
2013-03-04 09:05:00,34.1,18.3,30.14,WNW,288,8.0,8.0,52,0.00,,,0.00,Wunderground v.1.15,2013-03-04 14:05:00,
2013-03-04 09:15:00,35.2,19.8,30.13,NW,311,7.0,8.0,53,0.00,,,0.00,Wunderground v.1.15,2013-03-04 14:15:00,
2013-03-04 09:25:00,35.2,18.4,30.14,NW,322,8.0,8.0,50,0.00,,,0.00,Wunderground v.1.15,2013-03-04 14:25:00,
2013-03-04 09:35:00,35.5,18.2,30.13,NNW,339,8.0,9.0,49,0.00,,,0.00,Wunderground v.1.15,2013-03-04 14:35:00,
2013-03-04 09:45:00,35.5,18.2,30.14,WNW,294,8.0,11.0,49,0.00,,,0.00,Wunderground v.1.15,2013-03-04 14:45:00,
2013-03-04 09:55:00,35.7,18.9,30.14,WNW,291,10.0,13.0,50,0.00,,,0.00,Wunderground v.1.15,2013-03-04 14:55:00,
2013-03-04 10:05:00,36.0,18.7,30.14,West,260,9.0,11.0,49,0.00,,,0.00,Wunderground v.1.15,2013-03-04 15:05:00,
2013-03-04 10:15:00,36.7,18.8,30.14,NW,317,9.0,9.0,48,0.00,,,0.00,Wunderground v.1.15,2013-03-04 15:15:00,
2013-03-04 10:25:00,37.7,19.3,30.14,WNW,289,7.0,13.0,47,0.00,,,0.00,Wunderground v.1.15,2013-03-04 15:25:00,
2013-03-04 10:30:00,37.3,18.9,30.14,NW,305,9.0,9.0,47,0.00,,,0.00,Wunderground v.1.15,2013-03-04 15:30:00,
2013-03-04 10:40:00,37.6,18.7,30.13,NW,323,9.0,9.0,46,0.00,,,0.00,Wunderground v.1.15,2013-03-04 15:40:00,
2013-03-04 10:50:00,37.7,18.8,30.13,WNW,303,8.0,14.0,46,0.00,,,0.00,Wunderground v.1.15,2013-03-04 15:50:00,
2013-03-04 11:00:00,39.2,19.1,30.13,NW,323,7.0,7.0,44,0.00,,,0.00,Wunderground v.1.15,2013-03-04 16:00:00,
2013-03-04 11:05:00,38.8,18.7,30.13,NNW,344,7.0,7.0,44,0.00,,,0.00,Wunderground v.1.15,2013-03-04 16:05:00,
2013-03-04 11:10:00,39.5,19.9,30.13,WSW,239,7.0,10.0,45,0.00,,,0.00,Wunderground v.1.15,2013-03-04 16:10:00,
2013-03-04 11:20:00,39.3,19.2,30.12,NNW,338,8.0,8.0,44,0.00,,,0.00,Wunderground v.1.15,2013-03-04 16:20:00,
2013-03-04 11:30:00,40.1,19.4,30.12,NW,311,6.0,6.0,43,0.00,,,0.00,Wunderground v.1.15,2013-03-04 16:30:00,
2013-03-04 11:40:00,40.6,19.3,30.11,NW,304,6.0,6.0,42,0.00,,,0.00,Wunderground v.1.15,2013-03-04 16:40:00,
2013-03-04 11:45:00,41.0,17.9,30.12,West,268,7.0,11.0,39,0.00,,,0.00,Wunderground v.1.15,2013-03-04 16:45:00,
2013-03-04 11:50:00,40.1,18.8,30.11,WNW,294,9.0,9.0,42,0.00,,,0.00,Wunderground v.1.15,2013-03-04 16:50:00,
2013-03-04 12:00:00,40.7,18.2,30.11,WSW,252,7.0,8.0,40,0.00,,,0.00,Wunderground v.1.15,2013-03-04 17:00:00,
2013-03-04 12:05:00,41.5,20.1,30.11,WNW,303,8.0,8.0,42,0.00,,,0.00,Wunderground v.1.15,2013-03-04 17:05:00,
2013-03-04 12:15:00,41.8,19.2,30.10,West,262,7.0,8.0,40,0.00,,,0.00,Wunderground v.1.15,2013-03-04 17:15:00,
2013-03-04 12:25:00,42.3,17.8,30.09,WNW,290,7.0,9.0,37,0.00,,,0.00,Wunderground v.1.15,2013-03-04 17:25:00,
2013-03-04 12:35:00,43.2,19.3,30.09,WNW,297,7.0,8.0,38,0.00,,,0.00,Wunderground v.1.15,2013-03-04 17:35:00,
2013-03-04 12:45:00,43.0,19.1,30.09,North,355,6.0,11.0,38,0.00,,,0.00,Wunderground v.1.15,2013-03-04 17:45:00,
2013-03-04 12:55:00,43.7,19.7,30.08,WNW,290,8.0,19.0,38,0.00,,,0.00,Wunderground v.1.15,2013-03-04 17:55:00,
2013-03-04 13:05:00,44.1,20.1,30.08,North,351,7.0,8.0,38,0.00,,,0.00,Wunderground v.1.15,2013-03-04 18:05:00,
2013-03-04 13:15:00,43.8,18.5,30.08,West,259,8.0,13.0,36,0.00,,,0.00,Wunderground v.1.15,2013-03-04 18:15:00,
2013-03-04 13:20:00,44.2,18.9,30.08,WSW,257,8.0,8.0,36,0.00,,,0.00,Wunderground v.1.15,2013-03-04 18:20:00,
2013-03-04 13:25:00,45.1,19.7,30.08,West,267,8.0,8.0,36,0.00,,,0.00,Wunderground v.1.15,2013-03-04 18:25:00,
2013-03-04 13:30:00,45.5,18.7,30.07,WNW,291,6.0,11.0,34,0.00,,,0.00,Wunderground v.1.15,2013-03-04 18:30:00,
2013-03-04 13:40:00,45.3,18.5,30.07,West,271,8.0,8.0,34,0.00,,,0.00,Wunderground v.1.15,2013-03-04 18:40:00,
2013-03-04 13:45:00,46.4,19.5,30.07,WNW,292,6.0,8.0,34,0.00,,,0.00,Wunderground v.1.15,2013-03-04 18:45:00,
2013-03-04 13:55:00,45.9,18.4,30.07,NW,304,8.0,13.0,33,0.00,,,0.00,Wunderground v.1.15,2013-03-04 18:55:00,
2013-03-04 14:05:00,46.0,17.0,30.07,WNW,283,9.0,12.0,31,0.00,,,0.00,Wunderground v.1.15,2013-03-04 19:05:00,
2013-03-04 14:15:00,47.0,18.6,30.07,WNW,301,9.0,10.0,32,0.00,,,0.00,Wunderground v.1.15,2013-03-04 19:15:00,
2013-03-04 14:20:00,46.5,16.7,30.07,NW,318,9.0,13.0,30,0.00,,,0.00,Wunderground v.1.15,2013-03-04 19:20:00,
2013-03-04 14:25:00,46.5,16.7,30.07,WNW,286,10.0,13.0,30,0.00,,,0.00,Wunderground v.1.15,2013-03-04 19:25:00,
2013-03-04 14:30:00,46.8,17.7,30.06,West,273,9.0,9.0,31,0.00,,,0.00,Wunderground v.1.15,2013-03-04 19:30:00,
2013-03-04 14:35:00,47.4,18.2,30.06,WNW,301,9.0,12.0,31,0.00,,,0.00,Wunderground v.1.15,2013-03-04 19:35:00,
2013-03-04 14:40:00,47.4,18.2,30.06,West,277,8.0,8.0,31,0.00,,,0.00,Wunderground v.1.15,2013-03-04 19:40:00,
2013-03-04 14:50:00,47.1,16.4,30.06,West,265,7.0,7.0,29,0.00,,,0.00,Wunderground v.1.15,2013-03-04 19:50:00,
2013-03-04 15:00:00,47.8,16.2,30.06,West,279,8.0,8.0,28,0.00,,,0.00,Wunderground v.1.15,2013-03-04 20:00:00,
2013-03-04 15:05:00,47.9,17.9,30.05,NW,314,8.0,8.0,30,0.00,,,0.00,Wunderground v.1.15,2013-03-04 20:05:00,
2013-03-04 15:15:00,48.5,19.2,30.05,West,279,7.0,13.0,31,0.00,,,0.00,Wunderground v.1.15,2013-03-04 20:15:00,
2013-03-04 15:25:00,48.1,17.3,30.05,NNW,342,8.0,8.0,29,0.00,,,0.00,Wunderground v.1.15,2013-03-04 20:25:00,
2013-03-04 15:35:00,48.2,17.4,30.05,WNW,284,8.0,11.0,29,0.00,,,0.00,Wunderground v.1.15,2013-03-04 20:35:00,
2013-03-04 15:45:00,48.3,18.3,30.05,WNW,302,8.0,9.0,30,0.00,,,0.00,Wunderground v.1.15,2013-03-04 20:45:00,
2013-03-04 15:55:00,49.1,18.2,30.05,WNW,290,6.0,8.0,29,0.00,,,0.00,Wunderground v.1.15,2013-03-04 20:55:00,
2013-03-04 16:00:00,49.0,18.9,30.05,West,273,6.0,9.0,30,0.00,,,0.00,Wunderground v.1.15,2013-03-04 21:00:00,
2013-03-04 16:05:00,48.8,17.9,30.04,NW,311,8.0,9.0,29,0.00,,,0.00,Wunderground v.1.15,2013-03-04 21:05:00,
2013-03-04 16:15:00,49.1,18.2,30.05,WNW,290,7.0,8.0,29,0.00,,,0.00,Wunderground v.1.15,2013-03-04 21:15:00,
2013-03-04 16:20:00,49.2,17.4,30.04,NW,311,7.0,11.0,28,0.00,,,0.00,Wunderground v.1.15,2013-03-04 21:20:00,
2013-03-04 16:30:00,49.4,18.4,30.05,WNW,286,7.0,8.0,29,0.00,,,0.00,Wunderground v.1.15,2013-03-04 21:30:00,
2013-03-04 16:40:00,49.6,18.6,30.05,NW,314,5.0,6.0,29,0.00,,,0.00,Wunderground v.1.15,2013-03-04 21:40:00,
2013-03-04 16:45:00,49.4,17.6,30.05,West,271,6.0,6.0,28,0.00,,,0.00,Wunderground v.1.15,2013-03-04 21:45:00,
2013-03-04 16:55:00,49.4,18.4,30.05,WNW,300,5.0,7.0,29,0.00,,,0.00,Wunderground v.1.15,2013-03-04 21:55:00,
2013-03-04 17:00:00,49.2,17.4,30.05,WNW,294,5.0,6.0,28,0.00,,,0.00,Wunderground v.1.15,2013-03-04 22:00:00,
2013-03-04 17:05:00,49.1,19.0,30.06,NW,320,5.0,6.0,30,0.00,,,0.00,Wunderground v.1.15,2013-03-04 22:05:00,
2013-03-04 17:15:00,49.2,18.3,30.06,West,270,5.0,5.0,29,0.00,,,0.00,Wunderground v.1.15,2013-03-04 22:15:00,
2013-03-04 17:20:00,49.4,20.0,30.06,WSW,254,4.0,4.0,31,0.00,,,0.00,Wunderground v.1.15,2013-03-04 22:20:00,
2013-03-04 17:30:00,49.3,19.1,30.06,NW,311,2.0,4.0,30,0.00,,,0.00,Wunderground v.1.15,2013-03-04 22:30:00,
2013-03-04 17:40:00,48.8,19.5,30.06,WNW,302,1.0,1.0,31,0.00,,,0.00,Wunderground v.1.15,2013-03-04 22:40:00,
2013-03-04 17:50:00,48.2,19.7,30.07,WNW,282,1.0,4.0,32,0.00,,,0.00,Wunderground v.1.15,2013-03-04 22:50:00,
2013-03-04 17:55:00,47.8,18.6,30.07,West,281,2.0,4.0,31,0.00,,,0.00,Wunderground v.1.15,2013-03-04 22:55:00,
2013-03-04 18:00:00,47.2,19.5,30.07,WNW,284,1.0,1.0,33,0.00,,,0.00,Wunderground v.1.15,2013-03-04 23:00:00,
2013-03-04 18:05:00,46.7,21.1,30.07,WNW,284,0.0,1.0,36,0.00,,,0.00,Wunderground v.1.15,2013-03-04 23:05:00,
2013-03-04 18:15:00,45.9,19.1,30.07,WNW,284,0.0,0.0,34,0.00,,,0.00,Wunderground v.1.15,2013-03-04 23:15:00,
2013-03-04 18:25:00,45.2,19.1,30.08,WNW,284,0.0,0.0,35,0.00,,,0.00,Wunderground v.1.15,2013-03-04 23:25:00,
2013-03-04 18:35:00,44.4,19.7,30.08,WNW,284,0.0,0.0,37,0.00,,,0.00,Wunderground v.1.15,2013-03-04 23:35:00,
2013-03-04 18:45:00,43.3,22.3,30.08,WNW,284,0.0,0.0,43,0.00,,,0.00,Wunderground v.1.15,2013-03-04 23:45:00,
2013-03-04 18:55:00,42.6,22.7,30.08,WNW,284,0.0,0.0,45,0.00,,,0.00,Wunderground v.1.15,2013-03-04 23:55:00,
2013-03-04 19:05:00,41.8,22.0,30.09,WNW,284,0.0,0.0,45,0.00,,,0.00,Wunderground v.1.15,2013-03-05 00:05:00,
2013-03-04 19:15:00,41.1,21.9,30.08,WNW,284,0.0,0.0,46,0.00,,,0.00,Wunderground v.1.15,2013-03-05 00:15:00,
2013-03-04 19:25:00,40.2,22.5,30.08,WNW,284,0.0,0.0,49,0.00,,,0.00,Wunderground v.1.15,2013-03-05 00:25:00,
2013-03-04 19:35:00,38.9,23.7,30.08,WNW,284,0.0,0.0,54,0.00,,,0.00,Wunderground v.1.15,2013-03-05 00:35:00,
2013-03-04 19:45:00,38.4,20.9,30.08,WNW,284,0.0,0.0,49,0.00,,,0.00,Wunderground v.1.15,2013-03-05 00:45:00,
2013-03-04 19:55:00,39.6,20.5,30.08,WNW,284,0.0,0.0,46,0.00,,,0.00,Wunderground v.1.15,2013-03-05 00:55:00,
2013-03-04 20:05:00,40.3,21.1,30.09,WNW,284,0.0,0.0,46,0.00,,,0.00,Wunderground v.1.15,2013-03-05 01:05:00,
2013-03-04 20:15:00,40.0,20.9,30.09,WNW,284,0.0,0.0,46,0.00,,,0.00,Wunderground v.1.15,2013-03-05 01:15:00,
2013-03-04 20:25:00,40.5,20.3,30.09,WNW,284,0.0,0.0,44,0.00,,,0.00,Wunderground v.1.15,2013-03-05 01:25:00,
2013-03-04 20:35:00,40.9,20.6,30.09,WNW,284,0.0,0.0,44,0.00,,,0.00,Wunderground v.1.15,2013-03-05 01:35:00,
2013-03-04 20:45:00,40.9,20.6,30.09,WNW,284,0.0,0.0,44,0.00,,,0.00,Wunderground v.1.15,2013-03-05 01:45:00,
2013-03-04 20:55:00,40.9,21.2,30.10,WNW,284,0.0,0.0,45,0.00,,,0.00,Wunderground v.1.15,2013-03-05 01:55:00,
2013-03-04 21:05:00,40.8,20.5,30.10,WNW,284,0.0,0.0,44,0.00,,,0.00,Wunderground v.1.15,2013-03-05 02:05:00,
2013-03-04 21:15:00,40.6,21.4,30.10,WNW,284,0.0,0.0,46,0.00,,,0.00,Wunderground v.1.15,2013-03-05 02:15:00,
2013-03-04 21:20:00,40.5,20.3,30.10,WNW,284,0.0,0.0,44,0.00,,,0.00,Wunderground v.1.15,2013-03-05 02:20:00,
2013-03-04 21:30:00,40.6,19.8,30.10,WNW,284,0.0,0.0,43,0.00,,,0.00,Wunderground v.1.15,2013-03-05 02:30:00,
2013-03-04 21:35:00,40.5,20.8,30.10,WNW,284,0.0,0.0,45,0.00,,,0.00,Wunderground v.1.15,2013-03-05 02:35:00,
2013-03-04 21:45:00,39.9,20.3,30.09,WNW,284,0.0,0.0,45,0.00,,,0.00,Wunderground v.1.15,2013-03-05 02:45:00,
2013-03-04 21:55:00,39.8,20.2,30.09,WNW,284,0.0,0.0,45,0.00,,,0.00,Wunderground v.1.15,2013-03-05 02:55:00,
2013-03-04 22:00:00,39.6,19.5,30.10,WNW,284,0.0,0.0,44,0.00,,,0.00,Wunderground v.1.15,2013-03-05 03:00:00,
2013-03-04 22:05:00,39.5,20.4,30.10,WNW,284,0.0,0.0,46,0.00,,,0.00,Wunderground v.1.15,2013-03-05 03:05:00,
2013-03-04 22:15:00,39.2,20.1,30.11,WNW,284,0.0,0.0,46,0.00,,,0.00,Wunderground v.1.15,2013-03-05 03:15:00,
2013-03-04 22:25:00,39.2,20.6,30.10,WNW,284,0.0,0.0,47,0.00,,,0.00,Wunderground v.1.15,2013-03-05 03:25:00,
2013-03-04 22:35:00,39.3,19.7,30.10,WNW,284,0.0,0.0,45,0.00,,,0.00,Wunderground v.1.15,2013-03-05 03:35:00,
2013-03-04 22:45:00,39.3,20.7,30.11,WNW,284,0.0,1.0,47,0.00,,,0.00,Wunderground v.1.15,2013-03-05 03:45:00,
2013-03-04 22:55:00,39.2,20.6,30.11,WNW,284,0.0,0.0,47,0.00,,,0.00,Wunderground v.1.15,2013-03-05 03:55:00,
2013-03-04 23:05:00,39.3,20.7,30.11,WNW,284,0.0,1.0,47,0.00,,,0.00,Wunderground v.1.15,2013-03-05 04:05:00,
2013-03-04 23:15:00,39.5,20.9,30.10,WNW,284,0.0,0.0,47,0.00,,,0.00,Wunderground v.1.15,2013-03-05 04:15:00,
2013-03-04 23:25:00,39.3,21.2,30.10,WNW,284,0.0,0.0,48,0.00,,,0.00,Wunderground v.1.15,2013-03-05 04:25:00,
2013-03-04 23:30:00,39.3,21.2,30.10,WNW,284,0.0,0.0,48,0.00,,,0.00,Wunderground v.1.15,2013-03-05 04:30:00,
2013-03-04 23:40:00,39.2,20.6,30.10,WNW,284,0.0,0.0,47,0.00,,,0.00,Wunderground v.1.15,2013-03-05 04:40:00,
2013-03-04 23:50:00,39.0,20.5,30.10,WNW,284,0.0,0.0,47,0.00,,,0.00,Wunderground v.1.15,2013-03-05 04:50:00,